{"data":{"norad_id":62508,"epoch":"2026-05-24T22:20:22.784928Z","epoch_age_seconds":78041,"freshness":"FRESH","line1":"1 62508U 25003X   26144.93081927  .00012076  00000+0  44760-3 0  9996","line2":"2 62508  43.0004 218.2255 0001497 239.9930 120.0774 15.27583238 78218","mean_motion":15.27583238,"eccentricity":0.0001497,"inclination_deg":43.0004,"raan_deg":218.2255,"arg_perigee_deg":239.993,"mean_anomaly_deg":120.0774,"bstar":0.0004476,"rev_number":7821,"period_min":94.266548897547,"perigee_km":482.01228221279,"apogee_km":484.06651842704,"semimajor_km":6861.1764003199,"source":"CELESTRAK","updated_at":"2026-05-25T13:38:19.700835Z"}}